Погода в Самчиках

Украина / Хмельницкая область     49°45′47″N   27°23′50″E
темп.,
°C
ветер,
м/с
пор.,
м/с
влажн.,
%
обл.,
%
осадки,
мм/ч
давл.,
гПа
погр.,
м
27 октября, ср
ср2700:00+3ю4127350 0.0 1025248
03:00+2ююз498526 0.0 1025154
06:00+1юз358955 0.0 102582
09:00+3з37698 0.0 1025158
12:00+11зсз575987 0.0 1025620
15:00+12сз57565 0.0 10241058
18:00+8зсз336490 0.0 102518
21:00+7з337881 0.0 102633
28 октября, чт
чт2800:00+6зюз368720 0.0 102779
03:00+5з379149 0.0 1027110
06:00+5зюз48915 0.0 1025120
09:00+6з498444 0.0 1026194
12:00+12зсз5856100 0.0 1026506
15:00+15сз68545 0.0 1025992
18:00+10ссз3379100 0.0 102534
21:00+8сз228950 0.0 102618
29 октября, пт
пт2900:00+10сз2282100 0.0 102738
03:00+10с1182100 0.0 102710
06:00+10вюв118299 0.0 102715
09:00+10юв2481100 0.0 1027146
12:00+14юв456654 0.0 1027766
15:00+15юв455959 0.0 10261077
18:00+12юв467226 0.0 102675
21:00+9ююв4108310 0.0 1027199
30 октября, сб
сб3000:00+7ююв411915 0.0 1027210
03:00+7ююв412930 0.0 1027229
06:00+6ююв512935 0.0 1027257
09:00+7ююв513895 0.0 1027327
12:00+13ююв711595 0.0 1027776
15:00+15ююв79450 0.0 10251007
18:00+11ююв410550 0.0 1026194
21:00+8ююв514630 0.0 1027300
31 октября, вс
вс3100:00+7ююв514760 0.0 1027319
03:00+6ююв514780 0.0 1027299
05:00+5ююв514820 0.0 1026287
08:00+5ююв513810 0.0 1026326
11:00+12ююв812500 0.0 1024787
14:00+14ююв810420 0.0 1022985
17:00+10ююв511530 0.0 1021288
20:00+8ююв615600 0.0 1021398